User: anonymous   Login
Location: Phoenix
(33.4480°N, 112.0730°W)
Time: 15:41:10
(UTC-07:00)
Language:

Hubble Space Telescope - Orbit

View from above orbital plane
View from above orbital plane
View from above satellite
View from above satellite

Ground track
Ground track

The orbit data is extracted from the following two-line orbital elements,

1 20580U 90037B   17231.20881991  .00000553  00000-0  23129-4 0  9990
2 20580  28.4700 311.0740 0002875 127.4835  75.6669 15.08817790299810
Epoch (UTC): 19 August 2017 05:00:42
Eccentricity: 0.0002875
inclination: 28.4700°
perigee height: 538 km
apogee height: 542 km
right ascension of ascending node: 311.0740°
argument of perigee: 127.4835°
revolutions per day: 15.08817790
mean anomaly at epoch: 75.6669°
orbit number at epoch: 29981

The dashed part of the orbit path shows where the satellite is in the earth's shadow,  

DLR